Flag for Canada Weather past 2 weeks in Grande Prairie, Alberta, Canada

Now
66 °F

Passing clouds.


Feels Like: 66 °F
Forecast: 59 / 74 °F
Wind: 18 mph from West

Location: Grande Prairie

Current Time: Jul 3, 2015 at 6:21:43 AM

Latest Report: Jul 3, 2015 at 6:00 AM


Visibility: 25 mi

Pressure: 29.88 "Hg (27.67 "Hg at 657m altitude)

Humidity: 40%

Dew point: 41 °F

Location of Grande PrairieLocation

Historic Weather in Grande Prairie — Graph

°F

Grande Prairie temperature yesterday

Maximum temperature yesterday: 86 °F (at 7:00 PM)
Minimum temperature yesterday: 59 °F (at 5:00 AM)
Average temperature yesterday: 72 °F

Past Weeks' High & Low Weather Summary

 TemperatureHumidityPressure
High86 °F (Jul 2, 7:00 PM)100% (Jun 23, 4:00 AM)30.14 "Hg (Jun 23, 4:00 AM)
Low45 °F (Jun 20, 6:00 AM)24% (Jun 27, 1:00 PM)29.84 "Hg (Jun 19, 5:00 AM)
Average64 °F66%29.99 "Hg
* Reported Jun 18 5:00 AM — Jul 3 5:00 AM, Grande Prairie, Weather by CustomWeather, © 2015

Note: Actual official high and low records may vary slightly from our data, if they occured in-between our weather recording intervals... More about our weather records

Advertising

Grande Prairie weather history for previous 24 hours

 ConditionsComfort  
Time TempWeatherWind HumidityBarometerVisibility
5:00 AM
Fri, Jul 3
64 °FPassing clouds.15 mph49%29.87 "Hg25 mi
4:00 AM68 °FPassing clouds.17 mph49%29.85 "Hg25 mi
3:00 AM64 °FPartly cloudy.7 mph56%29.84 "Hg25 mi
2:00 AM66 °FPartly cloudy.5 mph52%29.84 "Hg25 mi
1:00 AM70 °FPassing clouds.8 mph43%29.84 "Hg25 mi
12:00 AM72 °FPartly cloudy.10 mph41%29.84 "Hg25 mi
11:00 PM
Thu, Jul 2
70 °FPartly sunny.9 mph43%29.86 "Hg25 mi
10:00 PM73 °FBroken clouds.12 mph38%29.86 "Hg25 mi
9:00 PM77 °FPartly sunny.13 mph34%29.86 "Hg25 mi
8:00 PM79 °FScattered clouds.10 mph34%29.86 "Hg25 mi
7:00 PM86 °FScattered clouds.10 mph25%29.87 "Hg25 mi
6:00 PM84 °FScattered clouds.7 mph31%29.89 "Hg25 mi
5:00 PM84 °FPartly sunny.6 mph29%29.91 "Hg25 mi
4:00 PM84 °FScattered clouds.8 mph31%29.93 "Hg25 mi
3:00 PM82 °FScattered clouds.8 mph28%29.96 "Hg25 mi
2:00 PM81 °FPartly sunny.6 mph42%29.98 "Hg25 mi
1:00 PM77 °FPartly sunny.7 mph44%30.01 "Hg25 mi
12:00 PM77 °FPartly sunny.9 mph47%30.02 "Hg25 mi
11:00 AM73 °FScattered clouds.9 mph53%30.03 "Hg25 mi
10:00 AM70 °FScattered clouds.8 mph60%30.05 "Hg25 mi
9:00 AM66 °FPartly sunny.6 mph60%30.05 "Hg25 mi
8:00 AM64 °FMild.7 mph64%30.05 "Hg25 mi
7:00 AM61 °FPartly sunny.3 mph77%30.06 "Hg25 mi
6:00 AM61 °FPassing clouds.2 mph77%30.06 "Hg25 mi
Weather by CustomWeather, © 2015

See weather overviewHow to use our weather pages